This is the latest recevied weather packets stored in our database for station/object S50APT-10. If no packets are shown the sender has not sent any weather packets the latest 10 day(s).
| Time | Temp. | Humidity | Pressure | Rain* | Wind** | Luminosity | Snow |
|---|---|---|---|---|---|---|---|
| 1777761838 | 12.78° C | 52% | 1022.2 hPa | - | - | - | - |
| 1777760937 | 13.33° C | 52% | 1022.3 hPa | - | - | - | - |
| 1777760037 | 13.89° C | 49% | 1022.3 hPa | - | - | - | - |
| 1777759136 | 13.89° C | 48% | 1022.4 hPa | - | - | - | - |
| 1777758235 | 14.44° C | 47% | 1022.3 hPa | - | - | - | - |
| 1777757335 | 15° C | 45% | 1022.4 hPa | - | - | - | - |
| 1777756434 | 15.56° C | 43% | 1022.4 hPa | - | - | - | - |
| 1777755533 | 15.56° C | 44% | 1022.4 hPa | - | - | - | - |
| 1777754633 | 15.56° C | 43% | 1022.6 hPa | - | - | - | - |
| 1777753732 | 16.67° C | 39% | 1022.6 hPa | - | - | - | - |
| 1777752832 | 17.22° C | 38% | 1022.7 hPa | - | - | - | - |
| 1777751931 | 18.33° C | 35% | 1022.6 hPa | - | - | - | - |
| 1777751030 | 17.78° C | 35% | 1022.5 hPa | - | - | - | - |
| 1777750129 | 18.33° C | 35% | 1022.5 hPa | - | - | - | - |
| 1777749228 | 17.22° C | 38% | 1022.5 hPa | - | - | - | - |
| 1777748327 | 18.33° C | 36% | 1022.4 hPa | - | - | - | - |
| 1777747425 | 18.33° C | 35% | 1022.4 hPa | - | - | - | - |
| 1777746525 | 18.33° C | 35% | 1022.2 hPa | - | - | - | - |
| 1777745624 | 18.33° C | 35% | 1022.1 hPa | - | - | - | - |
| 1777744724 | 18.89° C | 34% | 1022.1 hPa | - | - | - | - |
| 1777743823 | 20° C | 32% | 1022 hPa | - | - | - | - |
| 1777742923 | 21.67° C | 31% | 1022 hPa | - | - | - | - |
| 1777742022 | 24.44° C | 26% | 1022.1 hPa | - | - | - | - |
| 1777741122 | 26.11° C | 23% | 1022.1 hPa | - | - | - | - |
| 1777740221 | 26.11° C | 24% | 1022.2 hPa | - | - | - | - |
* Rain since midnight (hover to see other rain measurements)
** Current wind speed in m/s (hover to see current wind gust speed)